ROMMA est une association bénévole à but non lucratif. Votre soutien est indispensable : ADHERER à ROMMA ou FAIRE un DON

Miribel-les-Echelles - (38, Isère)

Massif de la Chartreuse (760 m)   Longitude: 05° 41' 54'' E   Latitude: 45° 26' 40'' N Station partenaire n°22
 

Détail journalier du     <<     >>

Température Precipitation Humidité Pression Vent Dir Rafale Dir. rafale Ensol.
Heure (°C) (mm) (%) (hPa) (km/h) (km/h) (min)
01:00 10.709610222NO13O0
02:00 10.70.89610222ONO11ONO0
03:00 10.90.6961022000
04:00 11.30.896102103NO0
05:00 11.209710213O18O0
06:00 11.309710212N10NE0
07:00 11.209710213NE11N0
08:00 11.419710211NE8N0
09:00 11.70.69710213N16N0
10:00 11.729710223NNE16NNE0
11:00 12.309710225NE16NNE0
12:00 12.609710225NNE16N0
13:00 13.209710215NNE18NE0
14:00 14.209710206ENE18NE60
15:00 14.109210199NNE23N60
16:00 13.3090101911NNE24NNE60
17:00 12.709110189NNE21NNE0
18:00 12.409110186NNE21N30
19:00 12.009410192N13N0
20:00 11.509510194NNE16NE0
21:00 11.409510186NE16NNE0
22:00 11.409610185NNE18NNE0
23:00 11.009510172NE6NE0
minuit 10.809510161NNE8ENE0

Graphique du 22-10-2019

 

Serveur OMMA